This is the latest recevied weather packets stored in our database for station/object CE3MXM-12. If no packets are shown the sender has not sent any weather packets the latest 10 day(s).
| Time | Temp. | Humidity | Pressure | Rain* | Wind** | Luminosity | Snow |
|---|---|---|---|---|---|---|---|
| 1777893872 | 11.67° C | 93% | 1015.5 hPa | - | - | - | - |
| 1777893571 | 11.67° C | 93% | 1015.4 hPa | - | - | - | - |
| 1777893271 | 11.67° C | 93% | 1015.4 hPa | - | - | - | - |
| 1777892971 | 11.67° C | 92% | 1015.6 hPa | - | - | - | - |
| 1777892671 | 12.22° C | 92% | 1015.4 hPa | - | - | - | - |
| 1777892371 | 12.22° C | 93% | 1015.4 hPa | - | - | - | - |
| 1777892071 | 12.22° C | 92% | 1015.4 hPa | - | - | - | - |
| 1777891771 | 12.22° C | 92% | 1015.2 hPa | - | - | - | - |
| 1777891470 | 12.78° C | 92% | 1015.5 hPa | - | - | - | - |
| 1777891170 | 12.78° C | 92% | 1015.3 hPa | - | - | - | - |
| 1777890871 | 12.78° C | 92% | 1015.3 hPa | - | - | - | - |
| 1777890570 | 12.78° C | 91% | 1015.2 hPa | - | - | - | - |
| 1777890270 | 12.22° C | 91% | 1015.3 hPa | - | - | - | - |
| 1777889970 | 12.22° C | 89% | 1015.2 hPa | - | - | - | - |
| 1777889670 | 12.22° C | 88% | 1015 hPa | - | - | - | - |
| 1777889370 | 12.78° C | 86% | 1015 hPa | - | - | - | - |
| 1777889070 | 12.78° C | 85% | 1015.1 hPa | - | - | - | - |
| 1777888770 | 13.33° C | 85% | 1015 hPa | - | - | - | - |
| 1777888470 | 13.33° C | 82% | 1015 hPa | - | - | - | - |
| 1777888169 | 13.89° C | 79% | 1015 hPa | - | - | - | - |
| 1777887869 | 13.89° C | 80% | 1014.9 hPa | - | - | - | - |
| 1777887569 | 13.89° C | 77% | 1014.9 hPa | - | - | - | - |
| 1777887269 | 13.89° C | 74% | 1014.8 hPa | - | - | - | - |
| 1777886969 | 13.89° C | 73% | 1014.8 hPa | - | - | - | - |
| 1777886669 | 14.44° C | 70% | 1015 hPa | - | - | - | - |
* Rain since midnight (hover to see other rain measurements)
** Current wind speed in m/s (hover to see current wind gust speed)